Location: Unspecified
(0.0000°N, 0.0000°E)
Time: 00:38:08
(UTC+00:00)

SAR-Lupe-2 - Visible Passes

Search period start: 23 January 2019 00:00
Search period end: 02 February 2019 00:00
Orbit: 481 x 484 km, 98.2° (Epoch: 19 January)

Date Brightness Start Highest point End Pass type
(mag) Time Alt. Az. Time Alt. Az. Time Alt. Az.
23 Jan 3.5 05:00:29 10° SSE 05:04:04 84° ENE 05:07:37 10° N visible
24 Jan 5.5 04:35:59 10° SE 04:39:06 29° ENE 04:42:12 10° NNE visible
25 Jan 6.7 04:13:00 10° E 04:14:09 11° ENE 04:15:18 10° ENE visible
25 Jan 5.2 05:44:44 10° SW 05:47:11 18° WSW 05:49:38 10° WNW visible
26 Jan 3.8 05:18:48 10° S 05:22:14 46° WSW 05:25:40 10° NNW visible
27 Jan 4.1 04:53:47 10° SSE 04:57:17 57° E 05:00:46 10° N visible
28 Jan 6.0 04:29:35 10° SE 04:32:19 21° ENE 04:35:03 10° NNE visible
29 Jan 4.7 05:37:29 10° SSW 05:40:25 24° WSW 05:43:20 10° NW visible
30 Jan 3.4 05:11:54 10° S 05:15:27 68° WSW 05:18:58 10° NNW visible
31 Jan 4.9 04:47:08 10° SSE 04:50:29 39° ENE 04:53:50 10° N visible
01 Feb 6.5 04:23:22 10° ESE 04:25:31 15° ENE 04:27:40 10° NE visible
